Location: ?kun?ru
(16.3916°N, 80.8194°E)
Time: 15:24:20
(UTC+00:00)

ADEOS II - Pass Details

Date: 19 May 2025
Orbit: 793 x 796 km, 98.7° (Epoch: 18 June)

Event Time Altitude Azimuth Distance (km) Brightness Sun altitude
Rises 22:08:09 0° 343° (NNW) 3,286 5.5 -25.9°
Reaches altitude 10° 22:11:37 10° 319° (NW) 2,355 4.4 -25.2°
Enters shadow 22:11:44 10° 317° (NW) 2,332 4.4 -25.2°
